Regional Weather Roundup
Issued by NWS

Home | Current Version | Previous Version | Graphics & Text | Print | Product List | Glossary On
Versions: 1 2 3 4 5 6 7 8 9 10 11 12 13 14 15 16 17 18 19 20 21 22 23 24 25 26 27 28 29 30 31 32 33 34 35 36 37 38 39 40 41 42 43 44 45 46 47 48 49 50
000
ASUS43 KMKX 150500
RWRWI

WISCONSIN REGIONAL WEATHER ROUNDUP
NATIONAL WEATHER SERVICE MILWAUKEE/SULLIVAN WI
1200 AM CDT MON SEP 15 2014

NOTE: "FAIR" INDICATES FEW OR NO CLOUDS BELOW 12,000 FEET WITH NO
SIGNIFICANT WEATHER AND/OR OBSTRUCTIONS TO VISIBILITY.

WIZ001-002-006>008-014>016-023>028-150600-
NORTHWEST WISCONSIN

CITY           SKY/WX    TMP DP  RH WIND       PRES   REMARKS
SUPERIOR ARPT  CLEAR     40  40  97 CALM      30.11S
ASHLAND        CLEAR     45  42  89 W6        30.10S
HAYWARD        CLEAR     40  38  93 CALM      30.13R
SIREN          PTCLDY    44  42  92 CALM      30.14R
RICE LAKE      MOCLDY    47  44  90 CALM      30.15R
LADYSMITH      PTCLDY    44  43  93 CALM      30.14S
EAU CLAIRE     NOT AVBL
MENOMONIE      CLOUDY    53  45  74 W5        30.14R
NEW RICHMOND   CLOUDY    49  46  92 CALM      30.15R
OSCEOLA        CLOUDY    47  47 100 S3        30.17S
$$

WIZ003>005-009-010-017-018-150600-
NORTH CENTRAL WISCONSIN

CITY           SKY/WX    TMP DP  RH WIND       PRES   REMARKS
WOODRUFF       PTCLDY    43  41  93 CALM      30.10R
RHINELANDER    MOCLDY    42  40  92 W5        30.12R
EAGLE RIVER    PTCLDY    39  39  99 CALM      30.09R FOG
LAND O LAKES   CLEAR     37  36  99 CALM      30.09S
PHILLIPS       PTCLDY    40  40 100 CALM      30.11S FOG
TOMAHAWK       MOCLDY    40  39  95 CALM      30.12R
MEDFORD        MOCLDY    47  43  87 CALM      30.12S
MERRILL        MOCLDY    47  44  90 NW3       30.11R
$$

WIZ029-030-035-036-043>047-150600-
CENTRAL WISCONSIN

CITY           SKY/WX    TMP DP  RH WIND       PRES   REMARKS
WAUSAU         CLOUDY    51  44  77 NW3       30.11R
MOSINEE        CLOUDY    48  45  87 SW6       30.13R
MARSHFIELD     CLOUDY    51  45  79 SW7       30.13R
STEVENS POINT  CLOUDY    54  43  68 W5        30.13R
WAUPACA        CLOUDY    57  53  84 CALM      30.13R
WAUTOMA        NOT AVBL
WISC RAPIDS    LGT RAIN  54  48  80 W6        30.15R
CAMP DOUGLAS   NOT AVBL
$$

WIZ011>013-019>022-031-037>040-048>050-150600-
NORTHEAST WISCONSIN

CITY           SKY/WX    TMP DP  RH WIND       PRES   REMARKS
ANTIGO         MOCLDY    47  44  87 W5        30.11R
STURGEON BAY   CLOUDY    55  48  76 SW7       30.10R
GREEN BAY      CLOUDY    57  50  77 SW6       30.11R
MANITOWOC      NOT AVBL
APPLETON       RAIN      55  48  76 SW9       30.13R
CLINTONVILLE   CLOUDY    54  46  76 W5        30.11R
OSHKOSH        CLOUDY    57  49  74 CALM      30.12R
$$

WIZ032>034-041-042-053>061-150600-
SOUTHWEST WISCONSIN

CITY           SKY/WX    TMP DP  RH WIND       PRES   REMARKS
LA CROSSE      CLOUDY    58  52  80 CALM      30.14R
SPARTA         CLOUDY    55  52  91 CALM      30.15R
VIROQUA        FAIR      55  50  82 CALM      30.14S
BOSCOBEL       PTCLDY    50  47  89 CALM      30.15S
PRAIRIE DU CHI PTCLDY    51  48  91 CALM      30.14S
PLATTEVILLE    FAIR      51  47  86 CALM      30.16F
$$

WIZ056-057-062-063-064-067-068-150600-
SOUTH CENTRAL WISCONSIN

CITY           SKY/WX    TMP DP  RH WIND       PRES   REMARKS
BARABOO/DELLS  CLOUDY    56  47  69 W5        30.13S
LONE ROCK      NOT AVBL
WATERTOWN      PTCLDY    50  48  92 CALM      30.14F
MADISON        PTCLDY    57  47  69 S5        30.15S
MIDDLETON      FAIR      55  46  71 SW5       30.15S
MONROE         MOCLDY    52  46  82 S8        30.15F
JANESVILLE     MOCLDY    54  46  76 CALM      30.15F
$$

WIZ051-052-058>065-066-070>072-150600-
SOUTHEAST WISCONSIN

CITY           SKY/WX    TMP DP  RH WIND       PRES   REMARKS
MILWAUKEE      PTCLDY    54  46  74 SW7       30.17R
WAUKESHA       PTCLDY    52  45  76 SW7       30.17S
MILWAUKEE/TIMM PTCLDY    54  43  66 SW3       30.16S
RACINE         PTCLDY    54  46  74 SW7       30.17F
BURLINGTON     PTCLDY    47  45  95 CALM      30.16F
KENOSHA        PTCLDY    53  47  79 SW7       30.17F
FOND DU LAC    CLOUDY    57  47  69 SW9       30.13R
SHEBOYGAN      CLOUDY    56  47  71 SW9       30.13S
WEST BEND      CLOUDY    55  43  62 SW7       30.15R
JUNEAU         CLOUDY    53  48  82 S6        30.15S
$$

LSZ147-162-150600-
LAKE SUPERIOR

STATION/POSITION TIME  TEMP    WIND        PRES    WAVE
                       AIR SEA DIR/SP/G            HT/PER
                 (UTC) (F)     (DEG/KT/KT) (MB)    (FT/S)
W MID LAKE BUOY  0350   50 47  270/ 12/ 14 1017.9R   2/ 4
DEVILS ISLAND    0400   52     280/ 11/ 13 1018.9R
PORT WING        0400   49     190/  5/  6 1019.3
SAXON HARBOR     0400   51     210/  5/  8 1019.0R
$$

LMZ867-665-643>646-150600-
LAKE MICHIGAN

STATION/POSITION TIME  TEMP    WIND        PRES    WAVE
                       AIR SEA DIR/SP/G            HT/PER
                 (UTC) (F)     (DEG/KT/KT) (MB)    (FT/S)
N MID LAKE BUOY  0350   58 58  230/ 17/ 21 1017.8F   5/ 7
NORTHPORT PIER   0400   55      CALM  /  7 1017.9S
KEWAUNEE LAKESHO 0400   56     250/  4/  6 1018.3R
SHEBOYGAN LAKESH 0400   58 50  230/ 11/ 14 1020.5S
PORT WASHINGTON  0440   57     260/  5/  8 1021.0S
MILWAUKEE LAKESH 0400   58     230/  8/ 10   N/A
S MID LAKE BUOY  0350   63 64  210/ 10/ 12 1021.7F   1/ 3
KENOSHA   LAKESH 0400   59     240/  7/ 10 1021.3S
$$

TC  - TEMPERATURE IN CELSIUS
VSB - VISIBILITY IN STATUTE MILES
WCI - WIND CHILL INDEX
HX  - HEAT INDEX




USA.gov is the U.S. government's official web portal to all federal, state and local government web resources and services.